contact:dominique.lefevre@mio.osupytheas.fr, maurice.libes@osupytheas.fr, didier.mallarino@osupytheas.fr
Project:EMSO http://www.emso-fr.org/EMSO-France
Depth: 2436.0 m
Title:EMSO Ligure Ouest : Data MII capteur MICROCAT
DateTime_Computer,Latitude,Longitude,Temperature,Conductivity,Pressure,DateTime_Instrument
DateTime_Computer,Latitude,Longitude,degC,S m-1,dbar,DateTime_Instrument
2020-07-03T00:01:22Z,42.805,6.029,13.2988,4.60043,2469.97,2020-7-03T02:02:08Z
2020-07-03T00:04:26Z,42.805,6.029,13.2985,4.60004,2469.993,2020-7-03T02:05:11Z
2020-07-03T00:07:29Z,42.805,6.029,13.2989,4.60021,2470.007,2020-7-03T02:08:15Z
2020-07-03T00:10:32Z,42.805,6.029,13.2985,4.60011,2469.993,2020-7-03T02:11:18Z
2020-07-03T00:13:35Z,42.805,6.029,13.2995,4.60036,2470.007,2020-7-03T02:14:21Z
2020-07-03T00:16:38Z,42.805,6.029,13.2997,4.60024,2469.993,2020-7-03T02:17:24Z
2020-07-03T00:19:42Z,42.805,6.029,13.2992,4.60031,2470.017,2020-7-03T02:20:27Z
2020-07-03T00:22:45Z,42.805,6.029,13.2992,4.60053,2469.993,2020-7-03T02:23:31Z
2020-07-03T00:25:48Z,42.805,6.029,13.2986,4.60009,2469.993,2020-7-03T02:26:34Z
2020-07-03T00:28:51Z,42.805,6.029,13.2986,4.60015,2470.007,2020-7-03T02:29:37Z
2020-07-03T00:31:55Z,42.805,6.029,13.2985,4.60017,2469.984,2020-7-03T02:32:40Z
2020-07-03T00:34:58Z,42.805,6.029,13.2983,4.60015,2470.007,2020-7-03T02:35:44Z
2020-07-03T00:38:01Z,42.805,6.029,13.2986,4.60028,2470.007,2020-7-03T02:38:47Z
2020-07-03T00:41:04Z,42.805,6.029,13.2982,4.60010,2470.007,2020-7-03T02:41:50Z
2020-07-03T00:44:08Z,42.805,6.029,13.3019,4.60020,2470.007,2020-7-03T02:44:53Z
2020-07-03T00:47:11Z,42.805,6.029,13.3004,4.60019,2469.984,2020-7-03T02:47:57Z
2020-07-03T00:50:14Z,42.805,6.029,13.2990,4.60047,2469.97,2020-7-03T02:51:00Z
2020-07-03T00:53:17Z,42.805,6.029,13.2994,4.60021,2470.007,2020-7-03T02:54:03Z
2020-07-03T00:56:21Z,42.805,6.029,13.2988,4.60039,2469.993,2020-7-03T02:57:06Z
2020-07-03T00:59:24Z,42.805,6.029,13.2990,4.60026,2469.993,2020-7-03T03:00:10Z
2020-07-03T01:02:27Z,42.805,6.029,13.2979,4.60026,2469.97,2020-7-03T03:03:13Z
2020-07-03T01:05:31Z,42.805,6.029,13.2983,4.60021,2469.993,2020-7-03T03:06:16Z
2020-07-03T01:08:34Z,42.805,6.029,13.2991,4.60033,2470.017,2020-7-03T03:09:20Z
2020-07-03T01:11:37Z,42.805,6.029,13.2999,4.60059,2469.984,2020-7-03T03:12:23Z
2020-07-03T01:14:40Z,42.805,6.029,13.2988,4.60018,2470.03,2020-7-03T03:15:26Z
2020-07-03T01:17:43Z,42.805,6.029,13.2985,4.60019,2470.017,2020-7-03T03:18:29Z
2020-07-03T01:20:47Z,42.805,6.029,13.2999,4.60019,2470.053,2020-7-03T03:21:32Z
2020-07-03T01:23:50Z,42.805,6.029,13.2988,4.60026,2470.03,2020-7-03T03:24:36Z
2020-07-03T01:26:53Z,42.805,6.029,13.2996,4.60020,2470.017,2020-7-03T03:27:39Z
2020-07-03T01:29:57Z,42.805,6.029,13.2990,4.60005,2470.04,2020-7-03T03:30:42Z
2020-07-03T01:33:00Z,42.805,6.029,13.2978,4.60007,2470.053,2020-7-03T03:33:46Z
2020-07-03T01:36:03Z,42.805,6.029,13.2993,4.60032,2469.993,2020-7-03T03:36:49Z
2020-07-03T01:39:06Z,42.805,6.029,13.2987,4.60033,2470.017,2020-7-03T03:39:52Z
2020-07-03T01:42:10Z,42.805,6.029,13.2978,4.60042,2470.04,2020-7-03T03:42:55Z
2020-07-03T01:45:13Z,42.805,6.029,13.3010,4.60029,2470.017,2020-7-03T03:45:59Z
2020-07-03T01:48:16Z,42.805,6.029,13.2990,4.60055,2470.03,2020-7-03T03:49:02Z
2020-07-03T01:51:19Z,42.805,6.029,13.2982,4.60011,2469.993,2020-7-03T03:52:05Z
2020-07-03T01:54:22Z,42.805,6.029,13.2983,4.60049,2470.03,2020-7-03T03:55:08Z
2020-07-03T01:57:26Z,42.805,6.029,13.2998,4.60029,2470.017,2020-7-03T03:58:11Z
2020-07-03T02:00:29Z,42.805,6.029,13.2980,4.60054,2470.04,2020-7-03T04:01:15Z
2020-07-03T02:03:32Z,42.805,6.029,13.2996,4.60038,2470.017,2020-7-03T04:04:18Z
2020-07-03T02:06:35Z,42.805,6.029,13.2974,4.60038,2470.04,2020-7-03T04:07:21Z
2020-07-03T02:09:38Z,42.805,6.029,13.2985,4.59994,2470.053,2020-7-03T04:10:24Z
2020-07-03T02:12:42Z,42.805,6.029,13.2989,4.60026,2470.03,2020-7-03T04:13:27Z
2020-07-03T02:15:45Z,42.805,6.029,13.2994,4.60052,2470.017,2020-7-03T04:16:31Z
2020-07-03T02:18:48Z,42.805,6.029,13.3004,4.60044,2470.04,2020-7-03T04:19:34Z
2020-07-03T02:21:51Z,42.805,6.029,13.2986,4.60046,2470.017,2020-7-03T04:22:37Z
2020-07-03T02:24:54Z,42.805,6.029,13.2981,4.60022,2470.04,2020-7-03T04:25:40Z
2020-07-03T02:27:58Z,42.805,6.029,13.2986,4.60021,2470.04,2020-7-03T04:28:44Z
2020-07-03T02:31:01Z,42.805,6.029,13.2982,4.60019,2470.053,2020-7-03T04:31:47Z
2020-07-03T02:34:04Z,42.805,6.029,13.2993,4.60031,2470.063,2020-7-03T04:34:50Z
2020-07-03T02:37:08Z,42.805,6.029,13.2990,4.60043,2470.063,2020-7-03T04:37:53Z
2020-07-03T02:40:11Z,42.805,6.029,13.3003,4.60047,2470.04,2020-7-03T04:40:57Z
2020-07-03T02:43:14Z,42.805,6.029,13.2987,4.60018,2470.017,2020-7-03T04:44:00Z
2020-07-03T02:46:17Z,42.805,6.029,13.2991,4.60024,2470.063,2020-7-03T04:47:03Z
2020-07-03T02:49:20Z,42.805,6.029,13.2982,4.60022,2470.026,2020-7-03T04:50:06Z
2020-07-03T02:52:24Z,42.805,6.029,13.2986,4.60029,2470.087,2020-7-03T04:53:09Z
2020-07-03T02:55:27Z,42.805,6.029,13.2992,4.60019,2470.04,2020-7-03T04:56:13Z
2020-07-03T02:58:30Z,42.805,6.029,13.2987,4.60022,2470.087,2020-7-03T04:59:16Z
2020-07-03T03:01:33Z,42.805,6.029,13.2978,4.60019,2470.077,2020-7-03T05:02:19Z
2020-07-03T03:04:37Z,42.805,6.029,13.2979,4.60020,2470.1,2020-7-03T05:05:22Z
2020-07-03T03:07:40Z,42.805,6.029,13.2982,4.60014,2470.1,2020-7-03T05:08:26Z
2020-07-03T03:10:43Z,42.805,6.029,13.2980,4.60039,2470.1,2020-7-03T05:11:29Z
2020-07-03T03:13:46Z,42.805,6.029,13.2996,4.60033,2470.04,2020-7-03T05:14:32Z
2020-07-03T03:16:49Z,42.805,6.029,13.2989,4.60044,2470.1,2020-7-03T05:17:35Z
2020-07-03T03:19:53Z,42.805,6.029,13.2987,4.60040,2470.11,2020-7-03T05:20:38Z
2020-07-03T03:22:56Z,42.805,6.029,13.2978,4.60052,2470.1,2020-7-03T05:23:42Z
2020-07-03T03:25:59Z,42.805,6.029,13.2991,4.60044,2470.1,2020-7-03T05:26:45Z
2020-07-03T03:29:02Z,42.805,6.029,13.2983,4.60019,2470.087,2020-7-03T05:29:48Z
2020-07-03T03:32:06Z,42.805,6.029,13.3007,4.60029,2470.1,2020-7-03T05:32:51Z
2020-07-03T03:35:09Z,42.805,6.029,13.2982,4.60014,2470.087,2020-7-03T05:35:55Z
2020-07-03T03:38:12Z,42.805,6.029,13.2985,4.59999,2470.063,2020-7-03T05:38:58Z
2020-07-03T03:41:15Z,42.805,6.029,13.2986,4.60062,2470.087,2020-7-03T05:42:01Z
2020-07-03T03:44:19Z,42.805,6.029,13.2992,4.60028,2470.077,2020-7-03T05:45:04Z
2020-07-03T03:47:22Z,42.805,6.029,13.2989,4.60032,2470.1,2020-7-03T05:48:08Z
2020-07-03T03:50:25Z,42.805,6.029,13.2996,4.60020,2470.124,2020-7-03T05:51:11Z
2020-07-03T03:53:28Z,42.805,6.029,13.2986,4.60018,2470.11,2020-7-03T05:54:14Z
2020-07-03T03:56:31Z,42.805,6.029,13.2990,4.60033,2470.11,2020-7-03T05:57:17Z
2020-07-03T03:59:35Z,42.805,6.029,13.2983,4.60039,2470.11,2020-7-03T06:00:21Z
2020-07-03T04:02:38Z,42.805,6.029,13.2988,4.60046,2470.147,2020-7-03T06:03:24Z
2020-07-03T04:05:41Z,42.805,6.029,13.2996,4.60033,2470.124,2020-7-03T06:06:27Z
2020-07-03T04:08:45Z,42.805,6.029,13.2986,4.60052,2470.11,2020-7-03T06:09:30Z
2020-07-03T04:11:48Z,42.805,6.029,13.2984,4.60054,2470.087,2020-7-03T06:12:34Z
2020-07-03T04:14:51Z,42.805,6.029,13.2996,4.60069,2470.11,2020-7-03T06:15:37Z
2020-07-03T04:17:54Z,42.805,6.029,13.2983,4.60056,2470.11,2020-7-03T06:18:40Z
2020-07-03T04:20:58Z,42.805,6.029,13.2986,4.60025,2470.147,2020-7-03T06:21:43Z
2020-07-03T04:24:01Z,42.805,6.029,13.2982,4.60053,2470.147,2020-7-03T06:24:47Z
2020-07-03T04:27:04Z,42.805,6.029,13.2992,4.60037,2470.11,2020-7-03T06:27:50Z
2020-07-03T04:30:07Z,42.805,6.029,13.2996,4.60071,2470.161,2020-7-03T06:30:53Z
2020-07-03T04:33:11Z,42.805,6.029,13.2982,4.60050,2470.124,2020-7-03T06:33:56Z
2020-07-03T04:36:14Z,42.805,6.029,13.2985,4.60047,2470.11,2020-7-03T06:37:00Z
2020-07-03T04:39:17Z,42.805,6.029,13.2986,4.60064,2470.124,2020-7-03T06:40:03Z
2020-07-03T04:42:21Z,42.805,6.029,13.2988,4.60016,2470.124,2020-7-03T06:43:06Z
2020-07-03T04:45:24Z,42.805,6.029,13.2984,4.60027,2470.11,2020-7-03T06:46:10Z
2020-07-03T04:48:27Z,42.805,6.029,13.2991,4.60044,2470.147,2020-7-03T06:49:13Z
2020-07-03T04:51:30Z,42.805,6.029,13.2986,4.60046,2470.11,2020-7-03T06:52:16Z
2020-07-03T04:54:34Z,42.805,6.029,13.3000,4.60013,2470.133,2020-7-03T06:55:19Z
2020-07-03T04:57:37Z,42.805,6.029,13.2989,4.60059,2470.124,2020-7-03T06:58:23Z
2020-07-03T05:00:40Z,42.805,6.029,13.2998,4.60080,2470.133,2020-7-03T07:01:26Z
2020-07-03T05:03:43Z,42.805,6.029,13.2996,4.60026,2470.133,2020-7-03T07:04:29Z
2020-07-03T05:06:47Z,42.805,6.029,13.2996,4.60043,2470.147,2020-7-03T07:07:32Z
2020-07-03T05:09:50Z,42.805,6.029,13.3012,4.60014,2470.133,2020-7-03T07:10:36Z
2020-07-03T05:12:53Z,42.805,6.029,13.3013,4.60049,2470.133,2020-7-03T07:13:39Z
2020-07-03T05:15:56Z,42.805,6.029,13.2995,4.60052,2470.11,2020-7-03T07:16:42Z
2020-07-03T05:18:59Z,42.805,6.029,13.2995,4.60060,2470.133,2020-7-03T07:19:45Z
2020-07-03T05:22:03Z,42.805,6.029,13.3011,4.60039,2470.124,2020-7-03T07:22:48Z
2020-07-03T05:25:06Z,42.805,6.029,13.3016,4.60041,2470.087,2020-7-03T07:25:52Z
2020-07-03T05:28:09Z,42.805,6.029,13.3029,4.60025,2470.124,2020-7-03T07:28:55Z
2020-07-03T05:31:12Z,42.805,6.029,13.3031,4.60031,2470.133,2020-7-03T07:31:58Z
2020-07-03T05:34:16Z,42.805,6.029,13.3031,4.60052,2470.124,2020-7-03T07:35:02Z
2020-07-03T05:37:19Z,42.805,6.029,13.3029,4.60025,2470.124,2020-7-03T07:38:05Z
2020-07-03T05:40:22Z,42.805,6.029,13.3031,4.60049,2470.133,2020-7-03T07:41:08Z
2020-07-03T05:43:25Z,42.805,6.029,13.3031,4.60046,2470.147,2020-7-03T07:44:11Z
2020-07-03T05:46:29Z,42.805,6.029,13.3026,4.60058,2470.147,2020-7-03T07:47:14Z
2020-07-03T05:49:32Z,42.805,6.029,13.3036,4.60049,2470.087,2020-7-03T07:50:18Z
2020-07-03T05:52:35Z,42.805,6.029,13.3030,4.60024,2470.147,2020-7-03T07:53:21Z
2020-07-03T05:55:38Z,42.805,6.029,13.3028,4.60041,2470.147,2020-7-03T07:56:24Z
2020-07-03T05:58:42Z,42.805,6.029,13.3023,4.60068,2470.1,2020-7-03T07:59:27Z
2020-07-03T06:01:45Z,42.805,6.029,13.3043,4.60051,2470.11,2020-7-03T08:02:30Z
2020-07-03T06:04:48Z,42.805,6.029,13.3033,4.60044,2470.11,2020-7-03T08:05:34Z
2020-07-03T06:07:51Z,42.805,6.029,13.3050,4.60052,2470.124,2020-7-03T08:08:37Z
2020-07-03T06:10:54Z,42.805,6.029,13.3033,4.60045,2470.133,2020-7-03T08:11:40Z
2020-07-03T06:13:58Z,42.805,6.029,13.3034,4.60074,2470.133,2020-7-03T08:14:43Z
2020-07-03T06:17:01Z,42.805,6.029,13.3030,4.60059,2470.147,2020-7-03T08:17:47Z
2020-07-03T06:20:04Z,42.805,6.029,13.3018,4.60057,2470.087,2020-7-03T08:20:50Z
2020-07-03T06:23:07Z,42.805,6.029,13.3032,4.60026,2470.133,2020-7-03T08:23:53Z
2020-07-03T06:26:10Z,42.805,6.029,13.3034,4.60004,2470.11,2020-7-03T08:26:56Z
2020-07-03T06:29:14Z,42.805,6.029,13.3046,4.60043,2470.11,2020-7-03T08:29:59Z
2020-07-03T06:32:17Z,42.805,6.029,13.3004,4.60066,2470.147,2020-7-03T08:33:03Z
2020-07-03T06:35:20Z,42.805,6.029,13.3036,4.60033,2470.147,2020-7-03T08:36:06Z
2020-07-03T06:38:23Z,42.805,6.029,13.2998,4.60058,2470.124,2020-7-03T08:39:09Z
2020-07-03T06:41:27Z,42.805,6.029,13.3022,4.60054,2470.147,2020-7-03T08:42:12Z
2020-07-03T06:44:30Z,42.805,6.029,13.3032,4.60033,2470.124,2020-7-03T08:45:16Z
2020-07-03T06:47:33Z,42.805,6.029,13.3046,4.60039,2470.133,2020-7-03T08:48:19Z
2020-07-03T06:50:36Z,42.805,6.029,13.3052,4.60021,2470.133,2020-7-03T08:51:22Z
2020-07-03T06:53:40Z,42.805,6.029,13.3046,4.60082,2470.124,2020-7-03T08:54:25Z
2020-07-03T06:56:43Z,42.805,6.029,13.2997,4.60003,2470.124,2020-7-03T08:57:29Z
2020-07-03T06:59:46Z,42.805,6.029,13.3014,4.60016,2470.11,2020-7-03T09:00:32Z
2020-07-03T07:02:49Z,42.805,6.029,13.3042,4.60027,2470.124,2020-7-03T09:03:35Z
2020-07-03T07:05:52Z,42.805,6.029,13.3003,4.60033,2470.11,2020-7-03T09:06:38Z
2020-07-03T07:08:56Z,42.805,6.029,13.3035,4.60064,2470.077,2020-7-03T09:09:42Z
2020-07-03T07:11:59Z,42.805,6.029,13.3041,4.60044,2470.1,2020-7-03T09:12:45Z
2020-07-03T07:15:02Z,42.805,6.029,13.3069,4.60029,2470.124,2020-7-03T09:15:48Z
2020-07-03T07:18:05Z,42.805,6.029,13.3059,4.60026,2470.124,2020-7-03T09:18:51Z
2020-07-03T07:21:09Z,42.805,6.029,13.3060,4.60001,2470.11,2020-7-03T09:21:54Z
2020-07-03T07:24:12Z,42.805,6.029,13.3032,4.60007,2470.1,2020-7-03T09:24:58Z
2020-07-03T07:27:15Z,42.805,6.029,13.3018,4.60028,2470.11,2020-7-03T09:28:01Z
2020-07-03T07:30:18Z,42.805,6.029,13.2999,4.60072,2470.11,2020-7-03T09:31:04Z
2020-07-03T07:33:22Z,42.805,6.029,13.2997,4.60044,2470.11,2020-7-03T09:34:07Z
2020-07-03T07:36:25Z,42.805,6.029,13.3013,4.60021,2470.124,2020-7-03T09:37:11Z
2020-07-03T07:39:28Z,42.805,6.029,13.3024,4.60024,2470.124,2020-7-03T09:40:14Z
2020-07-03T07:42:31Z,42.805,6.029,13.3024,4.60059,2470.1,2020-7-03T09:43:17Z
2020-07-03T07:45:34Z,42.805,6.029,13.2997,4.60015,2470.063,2020-7-03T09:46:20Z
2020-07-03T07:48:38Z,42.805,6.029,13.3009,4.60014,2470.087,2020-7-03T09:49:23Z
2020-07-03T07:51:41Z,42.805,6.029,13.3029,4.60012,2470.1,2020-7-03T09:52:27Z
2020-07-03T07:54:44Z,42.805,6.029,13.3067,4.60021,2470.1,2020-7-03T09:55:30Z
2020-07-03T07:57:47Z,42.805,6.029,13.3053,4.60057,2470.087,2020-7-03T09:58:33Z
2020-07-03T08:00:51Z,42.805,6.029,13.3000,4.60046,2470.077,2020-7-03T10:01:37Z
2020-07-03T08:03:54Z,42.805,6.029,13.3009,4.60006,2470.053,2020-7-03T10:04:40Z
2020-07-03T08:06:57Z,42.805,6.029,13.3021,4.60055,2470.053,2020-7-03T10:07:43Z
2020-07-03T08:10:00Z,42.805,6.029,13.2995,4.60057,2470.04,2020-7-03T10:10:46Z
2020-07-03T08:13:04Z,42.805,6.029,13.3020,4.60079,2470.053,2020-7-03T10:13:50Z
2020-07-03T08:16:07Z,42.805,6.029,13.3000,4.60055,2470.04,2020-7-03T10:16:53Z
2020-07-03T08:19:10Z,42.805,6.029,13.3019,4.60022,2470.077,2020-7-03T10:19:56Z
2020-07-03T08:22:14Z,42.805,6.029,13.3029,4.60038,2470.003,2020-7-03T10:22:59Z
2020-07-03T08:25:17Z,42.805,6.029,13.3043,4.60080,2470.017,2020-7-03T10:26:03Z
2020-07-03T08:28:20Z,42.805,6.029,13.3050,4.60044,2470.053,2020-7-03T10:29:06Z
2020-07-03T08:31:23Z,42.805,6.029,13.3058,4.60020,2470.063,2020-7-03T10:32:09Z
2020-07-03T08:34:26Z,42.805,6.029,13.3051,4.60029,2470.04,2020-7-03T10:35:12Z
2020-07-03T08:37:30Z,42.805,6.029,13.3026,4.60012,2470.077,2020-7-03T10:38:15Z
2020-07-03T08:40:33Z,42.805,6.029,13.3060,4.60016,2470.03,2020-7-03T10:41:19Z
2020-07-03T08:43:36Z,42.805,6.029,13.3072,4.60002,2470.04,2020-7-03T10:44:22Z
2020-07-03T08:46:40Z,42.805,6.029,13.3040,4.59994,2470.077,2020-7-03T10:47:25Z
2020-07-03T08:49:43Z,42.805,6.029,13.3012,4.60004,2470.04,2020-7-03T10:50:29Z
2020-07-03T08:52:46Z,42.805,6.029,13.2998,4.60011,2470.049,2020-7-03T10:53:32Z
2020-07-03T08:55:49Z,42.805,6.029,13.2987,4.60012,2470.017,2020-7-03T10:56:35Z
2020-07-03T08:58:53Z,42.805,6.029,13.2989,4.60000,2470.053,2020-7-03T10:59:38Z
2020-07-03T09:01:56Z,42.805,6.029,13.3007,4.60029,2470.03,2020-7-03T11:02:42Z
2020-07-03T09:04:59Z,42.805,6.029,13.3001,4.60014,2470.017,2020-7-03T11:05:45Z
2020-07-03T09:08:03Z,42.805,6.029,13.2993,4.60011,2470.007,2020-7-03T11:08:48Z
2020-07-03T09:11:06Z,42.805,6.029,13.2995,4.60040,2470.03,2020-7-03T11:11:52Z
2020-07-03T09:14:09Z,42.805,6.029,13.2997,4.60022,2470.017,2020-7-03T11:14:55Z
2020-07-03T09:17:12Z,42.805,6.029,13.2999,4.59999,2470.03,2020-7-03T11:17:58Z
2020-07-03T09:20:16Z,42.805,6.029,13.3014,4.60032,2469.984,2020-7-03T11:21:01Z
2020-07-03T09:23:19Z,42.805,6.029,13.3026,4.59994,2469.993,2020-7-03T11:24:05Z
2020-07-03T09:26:22Z,42.805,6.029,13.3018,4.59994,2470.03,2020-7-03T11:27:08Z
2020-07-03T09:29:26Z,42.805,6.029,13.3014,4.60003,2470.053,2020-7-03T11:30:11Z
2020-07-03T09:32:29Z,42.805,6.029,13.3022,4.60006,2470.053,2020-7-03T11:33:15Z
2020-07-03T09:35:32Z,42.805,6.029,13.3036,4.59999,2470.007,2020-7-03T11:36:18Z
2020-07-03T09:38:35Z,42.805,6.029,13.3027,4.60009,2470.04,2020-7-03T11:39:21Z
2020-07-03T09:41:38Z,42.805,6.029,13.3025,4.59997,2469.984,2020-7-03T11:42:24Z
2020-07-03T09:44:42Z,42.805,6.029,13.3018,4.60014,2470.03,2020-7-03T11:45:27Z
2020-07-03T09:47:45Z,42.805,6.029,13.3000,4.59994,2470.007,2020-7-03T11:48:31Z
2020-07-03T09:50:48Z,42.805,6.029,13.3015,4.59998,2470.03,2020-7-03T11:51:34Z
2020-07-03T09:53:51Z,42.805,6.029,13.3015,4.59994,2469.984,2020-7-03T11:54:37Z
2020-07-03T09:56:54Z,42.805,6.029,13.3051,4.59992,2470.017,2020-7-03T11:57:40Z
2020-07-03T09:59:58Z,42.805,6.029,13.3014,4.60015,2469.97,2020-7-03T12:00:44Z
2020-07-03T10:03:01Z,42.805,6.029,13.3014,4.60011,2469.993,2020-7-03T12:03:47Z
2020-07-03T10:06:04Z,42.805,6.029,13.3016,4.60012,2469.97,2020-7-03T12:06:50Z
2020-07-03T10:09:07Z,42.805,6.029,13.3022,4.60006,2469.984,2020-7-03T12:09:53Z
2020-07-03T10:12:11Z,42.805,6.029,13.3024,4.60023,2469.984,2020-7-03T12:12:56Z
2020-07-03T10:15:14Z,42.805,6.029,13.3028,4.59996,2469.993,2020-7-03T12:16:00Z
2020-07-03T10:18:17Z,42.805,6.029,13.3039,4.60027,2469.984,2020-7-03T12:19:03Z
2020-07-03T10:21:20Z,42.805,6.029,13.3041,4.60025,2469.984,2020-7-03T12:22:06Z
2020-07-03T10:24:24Z,42.805,6.029,13.3046,4.60021,2470.007,2020-7-03T12:25:09Z
2020-07-03T10:27:27Z,42.805,6.029,13.3048,4.60006,2469.96,2020-7-03T12:28:13Z
2020-07-03T10:30:30Z,42.805,6.029,13.3048,4.60015,2469.97,2020-7-03T12:31:16Z
2020-07-03T10:33:33Z,42.805,6.029,13.3060,4.59996,2469.97,2020-7-03T12:34:19Z
2020-07-03T10:36:36Z,42.805,6.029,13.3023,4.60011,2469.984,2020-7-03T12:37:22Z
2020-07-03T10:39:40Z,42.805,6.029,13.3037,4.60006,2470.007,2020-7-03T12:40:26Z
2020-07-03T10:42:43Z,42.805,6.029,13.3037,4.59999,2469.984,2020-7-03T12:43:29Z
2020-07-03T10:45:46Z,42.805,6.029,13.3043,4.60018,2469.97,2020-7-03T12:46:32Z
2020-07-03T10:48:49Z,42.805,6.029,13.3039,4.60036,2469.96,2020-7-03T12:49:35Z
2020-07-03T10:51:53Z,42.805,6.029,13.3047,4.60062,2469.984,2020-7-03T12:52:39Z
2020-07-03T10:54:56Z,42.805,6.029,13.3054,4.60051,2469.984,2020-7-03T12:55:42Z
2020-07-03T10:57:59Z,42.805,6.029,13.3044,4.60031,2469.947,2020-7-03T12:58:45Z
2020-07-03T11:01:02Z,42.805,6.029,13.3056,4.60058,2469.97,2020-7-03T13:01:48Z
2020-07-03T11:04:06Z,42.805,6.029,13.3063,4.60074,2469.97,2020-7-03T13:04:51Z
2020-07-03T11:07:09Z,42.805,6.029,13.2984,4.60062,2469.974,2020-7-03T13:07:55Z
2020-07-03T11:10:12Z,42.805,6.029,13.2972,4.60051,2469.914,2020-7-03T13:10:58Z
2020-07-03T11:13:16Z,42.805,6.029,13.2971,4.60067,2469.947,2020-7-03T13:14:01Z
2020-07-03T11:16:19Z,42.805,6.029,13.2971,4.60072,2469.96,2020-7-03T13:17:05Z
2020-07-03T11:19:22Z,42.805,6.029,13.2975,4.60101,2469.96,2020-7-03T13:20:08Z
2020-07-03T11:22:25Z,42.805,6.029,13.2974,4.60093,2469.947,2020-7-03T13:23:11Z
2020-07-03T11:25:29Z,42.805,6.029,13.2974,4.60106,2469.96,2020-7-03T13:26:15Z
2020-07-03T11:28:32Z,42.805,6.029,13.2975,4.60092,2469.937,2020-7-03T13:29:18Z
2020-07-03T11:31:35Z,42.805,6.029,13.2977,4.60068,2469.947,2020-7-03T13:32:21Z
2020-07-03T11:34:39Z,42.805,6.029,13.2974,4.60059,2469.923,2020-7-03T13:35:24Z
2020-07-03T11:37:42Z,42.805,6.029,13.2973,4.60072,2469.937,2020-7-03T13:38:28Z
2020-07-03T11:40:45Z,42.805,6.029,13.2977,4.60051,2469.923,2020-7-03T13:41:31Z
2020-07-03T11:43:48Z,42.805,6.029,13.2986,4.60052,2469.947,2020-7-03T13:44:34Z
2020-07-03T11:46:52Z,42.805,6.029,13.3002,4.60038,2469.96,2020-7-03T13:47:37Z
2020-07-03T11:49:55Z,42.805,6.029,13.2983,4.59998,2469.947,2020-7-03T13:50:41Z
2020-07-03T11:52:58Z,42.805,6.029,13.2982,4.59992,2469.97,2020-7-03T13:53:44Z
2020-07-03T11:56:01Z,42.805,6.029,13.2996,4.59995,2469.947,2020-7-03T13:56:47Z
2020-07-03T11:59:05Z,42.805,6.029,13.2979,4.59983,2469.923,2020-7-03T13:59:50Z
2020-07-03T12:02:08Z,42.805,6.029,13.2979,4.59976,2469.923,2020-7-03T14:02:54Z
2020-07-03T12:05:11Z,42.805,6.029,13.2976,4.59976,2469.96,2020-7-03T14:05:57Z
2020-07-03T12:08:14Z,42.805,6.029,13.2969,4.59977,2469.96,2020-7-03T14:09:00Z
2020-07-03T12:11:17Z,42.805,6.029,13.2970,4.59976,2469.947,2020-7-03T14:12:03Z
2020-07-03T12:14:21Z,42.805,6.029,13.2971,4.59976,2469.947,2020-7-03T14:15:07Z
2020-07-03T12:17:24Z,42.805,6.029,13.2969,4.59975,2469.947,2020-7-03T14:18:10Z
2020-07-03T12:20:27Z,42.805,6.029,13.2971,4.59974,2469.937,2020-7-03T14:21:13Z
2020-07-03T12:23:30Z,42.805,6.029,13.2967,4.59975,2469.914,2020-7-03T14:24:16Z
2020-07-03T12:26:34Z,42.805,6.029,13.2971,4.59978,2469.937,2020-7-03T14:27:20Z
2020-07-03T12:29:37Z,42.805,6.029,13.2976,4.59986,2469.937,2020-7-03T14:30:23Z
2020-07-03T12:32:40Z,42.805,6.029,13.2968,4.59982,2469.923,2020-7-03T14:33:26Z
2020-07-03T12:35:43Z,42.805,6.029,13.2969,4.59976,2469.96,2020-7-03T14:36:29Z
2020-07-03T12:38:47Z,42.805,6.029,13.2970,4.59978,2469.923,2020-7-03T14:39:33Z
2020-07-03T12:41:50Z,42.805,6.029,13.2968,4.59976,2469.947,2020-7-03T14:42:36Z
2020-07-03T12:44:53Z,42.805,6.029,13.2967,4.59975,2469.947,2020-7-03T14:45:39Z
2020-07-03T12:47:56Z,42.805,6.029,13.2969,4.59976,2469.923,2020-7-03T14:48:42Z
2020-07-03T12:51:00Z,42.805,6.029,13.2967,4.59976,2469.96,2020-7-03T14:51:46Z
2020-07-03T12:54:03Z,42.805,6.029,13.2967,4.59978,2469.923,2020-7-03T14:54:49Z
2020-07-03T12:57:06Z,42.805,6.029,13.2966,4.59976,2469.96,2020-7-03T14:57:52Z
2020-07-03T13:00:09Z,42.805,6.029,13.2967,4.59978,2469.937,2020-7-03T15:00:55Z
2020-07-03T13:03:13Z,42.805,6.029,13.2966,4.59976,2469.923,2020-7-03T15:03:59Z
2020-07-03T13:06:16Z,42.805,6.029,13.2968,4.59978,2469.947,2020-7-03T15:07:02Z
2020-07-03T13:09:19Z,42.805,6.029,13.2968,4.59982,2469.947,2020-7-03T15:10:05Z
2020-07-03T13:12:22Z,42.805,6.029,13.2968,4.59983,2469.97,2020-7-03T15:13:08Z
2020-07-03T13:15:26Z,42.805,6.029,13.2971,4.59982,2470.007,2020-7-03T15:16:12Z
2020-07-03T13:18:29Z,42.805,6.029,13.2971,4.59983,2469.96,2020-7-03T15:19:15Z
2020-07-03T13:21:32Z,42.805,6.029,13.2971,4.59981,2469.96,2020-7-03T15:22:18Z
2020-07-03T13:24:35Z,42.805,6.029,13.2968,4.59974,2469.937,2020-7-03T15:25:21Z
2020-07-03T13:27:39Z,42.805,6.029,13.2966,4.59983,2469.96,2020-7-03T15:28:24Z
2020-07-03T13:30:42Z,42.805,6.029,13.2968,4.59976,2469.96,2020-7-03T15:31:28Z
2020-07-03T13:33:45Z,42.805,6.029,13.2971,4.59983,2469.97,2020-7-03T15:34:31Z
2020-07-03T13:36:48Z,42.805,6.029,13.2968,4.59983,2469.909,2020-7-03T15:37:34Z
2020-07-03T13:39:52Z,42.805,6.029,13.2967,4.59986,2469.984,2020-7-03T15:40:37Z
2020-07-03T13:42:55Z,42.805,6.029,13.2971,4.59983,2469.984,2020-7-03T15:43:41Z
2020-07-03T13:45:58Z,42.805,6.029,13.2971,4.59986,2469.97,2020-7-03T15:46:44Z
2020-07-03T13:49:01Z,42.805,6.029,13.2964,4.59985,2469.96,2020-7-03T15:49:47Z
2020-07-03T13:52:05Z,42.805,6.029,13.2969,4.59986,2469.97,2020-7-03T15:52:51Z
2020-07-03T13:55:08Z,42.805,6.029,13.2968,4.59986,2469.993,2020-7-03T15:55:54Z
2020-07-03T13:58:11Z,42.805,6.029,13.2969,4.59982,2469.97,2020-7-03T15:58:57Z
2020-07-03T14:01:15Z,42.805,6.029,13.2973,4.59973,2469.993,2020-7-03T16:02:00Z
2020-07-03T14:04:18Z,42.805,6.029,13.2970,4.59981,2470.007,2020-7-03T16:05:04Z
2020-07-03T14:07:21Z,42.805,6.029,13.2971,4.59978,2469.96,2020-7-03T16:08:07Z
2020-07-03T14:10:24Z,42.805,6.029,13.2967,4.59981,2469.979,2020-7-03T16:11:10Z
2020-07-03T14:13:28Z,42.805,6.029,13.2967,4.59983,2469.993,2020-7-03T16:14:13Z
2020-07-03T14:16:31Z,42.805,6.029,13.2969,4.59992,2469.993,2020-7-03T16:17:17Z
2020-07-03T14:19:34Z,42.805,6.029,13.2968,4.59978,2470.007,2020-7-03T16:20:20Z
2020-07-03T14:22:37Z,42.805,6.029,13.2969,4.59983,2470.017,2020-7-03T16:23:23Z
2020-07-03T14:25:41Z,42.805,6.029,13.2968,4.59982,2470.017,2020-7-03T16:26:26Z
2020-07-03T14:28:44Z,42.805,6.029,13.2971,4.59973,2470.007,2020-7-03T16:29:30Z
2020-07-03T14:31:47Z,42.805,6.029,13.2971,4.59976,2469.993,2020-7-03T16:32:33Z
2020-07-03T14:34:50Z,42.805,6.029,13.2970,4.59976,2470.017,2020-7-03T16:35:36Z
2020-07-03T14:37:53Z,42.805,6.029,13.2969,4.59983,2470.017,2020-7-03T16:38:39Z
2020-07-03T14:40:57Z,42.805,6.029,13.2965,4.59979,2469.993,2020-7-03T16:41:42Z
2020-07-03T14:44:00Z,42.805,6.029,13.2967,4.59978,2469.993,2020-7-03T16:44:46Z
2020-07-03T14:47:03Z,42.805,6.029,13.2968,4.59980,2470.017,2020-7-03T16:47:49Z
2020-07-03T14:50:06Z,42.805,6.029,13.2969,4.59976,2470.007,2020-7-03T16:50:52Z
2020-07-03T14:53:10Z,42.805,6.029,13.2971,4.59983,2469.993,2020-7-03T16:53:55Z
2020-07-03T14:56:13Z,42.805,6.029,13.2968,4.59983,2470.063,2020-7-03T16:56:59Z
2020-07-03T14:59:16Z,42.805,6.029,13.2967,4.59991,2470.053,2020-7-03T17:00:02Z
2020-07-03T15:02:19Z,42.805,6.029,13.2971,4.59981,2470.04,2020-7-03T17:03:05Z
2020-07-03T15:05:23Z,42.805,6.029,13.2970,4.59981,2470.04,2020-7-03T17:06:08Z
2020-07-03T15:08:26Z,42.805,6.029,13.2971,4.59982,2470.017,2020-7-03T17:09:12Z
2020-07-03T15:11:29Z,42.805,6.029,13.2974,4.59986,2470.017,2020-7-03T17:12:15Z
2020-07-03T15:14:32Z,42.805,6.029,13.2985,4.59985,2470.053,2020-7-03T17:15:18Z